Regional Weather Roundup
Issued by NWS Nashville, TN

Home | Current Version | Previous Version | Text Only | Print | Product List | Glossary On
Versions: 1 2 3 4 5 6 7 8 9 10 11 12 13 14 15 16 17 18 19 20 21 22 23 24 25 26 27 28 29 30 31 32 33 34 35 36 37 38 39 40 41 42 43 44 45 46 47 48 49 50
000
ASUS44 KOHX 010810
RWROHX
MIDDLE TENNESSEE HOURLY WEATHER ROUNDUP
NATIONAL WEATHER SERVICE NASHVILLE TN
300 AM CDT SUN MAY 01 2016

NOTE: "FAIR" INDICATES FEW OR NO CLOUDS BELOW 12,000 FEET WITH
NO SIGNIFICANT WEATHER AND/OR OBSTRUCTIONS TO VISIBILITY.

* THESE REPORTS ARE NOT UNDER NWS QUALITY CONTROL AND MAY NOT
  REPORT WEATHER SUCH AS PRECIPITATION AND FOG.


TNZ005>011-023>034-057-059-062>066-078-080-010900
...NORTHERN MIDDLE TENNESSEE...

CITY           SKY/WX    TMP DP  RH WIND       PRES   REMARKS
CLARKSVILLE    FOG       62  61  96 CALM      29.88S VSB 1/4
CROSSVILLE     CLOUDY    70  62  76 S6        29.97S
NASHVILLE      CLEAR     64  62  93 S5        29.90S FOG
SMYRNA         CLEAR     64  64 100 S5        29.92R
SPARTA         MOCLDY    64  64 100 CALM      29.92R
$$
TNZ056-058-060-061-075>077-079-093>097-010900
...SOUTHERN MIDDLE TENNESSEE...

CITY           SKY/WX    TMP DP  RH WIND       PRES   REMARKS
COLUMBIA       CLEAR    N/A N/A N/A S8        29.89S
FAYETTEVILLE   CLOUDY    68  66  94 S8        29.93S
MCMINNVILLE    MOCLDY    66  66 100 SW3       29.93S
SHELBYVILLE    PTCLDY    66  66 100 S5        29.93S
TULLAHOMA      CLEAR     64  64 100 S6        29.94S
WINCHESTER     PTCLDY    64  63  94 SE5       29.95S
$$


...KEY TO REMARKS...
VSB - VISIBILITY IN MILES
WCI - WIND CHILL INDEX
HX  - HEAT INDEX




USA.gov is the U.S. government's official web portal to all federal, state and local government web resources and services.